Beaufort MCAS, SC

4:02 AM EDT on March 25, 2017 (GMT -0400)
Beaufort Marine Corps Air Station

Weather History for KNBC - April, 2014

Change the Weather History Date:

Friday, April 11, 2014

  Actual Average Record
Temperature  
Mean Temperature 66 °F -  
Max Temperature 81 °F 72 °F 89 °F (2011)
Min Temperature 54 °F 51 °F 37 °F (1966)
Cooling Degree Days 2    
Growing Degree Days 16 (Base 50)    
Moisture  
Dew Point 53 °F    
Average Humidity 63    
Maximum Humidity 90    
Minimum Humidity 38    
Precipitation  
Precipitation 0.00 in - - ()
Sea Level Pressure  
Sea Level Pressure 30.24 in    
Wind  
Wind Speed 6 mph (WSW)    
Max Wind Speed 14 mph    
Max Gust Speed 23 mph    
Visibility 10 miles    
Events Fog    
Averages and records for this station are not official NWS values.
T = Trace of Precipitation, MM = Missing Value Source: NWS Daily Summary

Daily Weather History Graph

Daily Weather History Graph

Search for Another Location

Airport or City:

Trip Planner

Search our weather history database for the weather conditions in past years. The results will help you decide how hot, cold, wet, or windy it might be!

Date:

Astronomy

Apr. 11, 2014 Rise Set
Actual Time 6:58 AM EDT 7:49 PM EDT
Civil Twilight 6:33 AM EDT 8:14 PM EDT
Nautical Twilight 6:03 AM EDT 8:44 PM EDT
Astronomical Twilight 5:33 AM EDT 9:15 PM EDT
Moon 4:39 PM EDT (4/11) 4:40 AM EDT (4/11)
Length of Visible Light 13h 41m
Length of Day
12h 51m
Waxing Gibbous, 87% of the Moon is Illuminated
Apr 11
Waxing Gibbous
Apr 15
Full
Apr 22
Last Quarter
Apr 29
New
May 6
First Quarter

Hourly Weather History & Observations

Time (EDT) Temp. Dew Point Humidity Pressure Visibility Wind Dir Wind Speed Gust Speed Precip Events Conditions
12:56 AM 60.1 °F 52.0 °F 75% 30.27 in 10.0 mi SW 4.6 mph - N/A   Clear
1:56 AM 55.9 °F 50.0 °F 80% 30.26 in 10.0 mi West 3.5 mph - N/A   Clear
2:56 AM 57.9 °F 52.0 °F 81% 30.25 in 10.0 mi WSW 4.6 mph - N/A   Clear
3:56 AM 55.9 °F 51.1 °F 84% 30.24 in 10.0 mi Calm Calm - N/A   Clear
4:56 AM 55.9 °F 52.0 °F 87% 30.25 in 10.0 mi NW 4.6 mph - N/A   Clear
5:56 AM 54.0 °F 51.1 °F 90% 30.27 in 10.0 mi West 3.5 mph - N/A   Clear
6:56 AM 54.0 °F 51.1 °F 90% 30.29 in 10.0 mi West 3.5 mph - N/A Fog Shallow Fog
7:56 AM 57.0 °F 54.0 °F 89% 30.29 in 9.0 mi WSW 3.5 mph - N/A   Clear
8:56 AM 64.0 °F 55.9 °F 75% 30.30 in 10.0 mi Calm Calm - N/A   Partly Cloudy
9:56 AM 70.0 °F 55.0 °F 59% 30.31 in 10.0 mi West 11.5 mph - N/A   Clear
10:56 AM 73.9 °F 53.1 °F 48% 30.32 in 10.0 mi West 13.8 mph - N/A   Partly Cloudy
11:56 AM 77.0 °F 53.1 °F 43% 30.30 in 10.0 mi West 11.5 mph 21.9 mph N/A   Scattered Clouds
12:49 PM 75.9 °F 52.0 °F 43% 30.28 in 10.0 mi SW 10.4 mph 21.9 mph N/A   Smoke
12:56 PM 75.9 °F 51.1 °F 42% 30.27 in 10.0 mi WSW 12.7 mph 17.3 mph N/A   Smoke
1:56 PM 78.1 °F 51.1 °F 39% 30.25 in 10.0 mi SW 9.2 mph 18.4 mph N/A   Smoke
2:56 PM 79.0 °F 51.1 °F 38% 30.22 in 10.0 mi SSW 8.1 mph - N/A   Mostly Cloudy
3:56 PM 78.1 °F 51.1 °F 39% 30.19 in 10.0 mi SSW 12.7 mph 23.0 mph N/A   Mostly Cloudy
4:56 PM 75.0 °F 51.1 °F 43% 30.18 in 10.0 mi SSW 11.5 mph 19.6 mph N/A   Mostly Cloudy
5:56 PM 73.9 °F 51.1 °F 45% 30.17 in 10.0 mi SSW 10.4 mph - N/A   Clear
6:56 PM 72.0 °F 51.1 °F 48% 30.17 in 10.0 mi SW 10.4 mph 17.3 mph N/A   Clear
7:56 PM 69.1 °F 54.0 °F 58% 30.18 in 10.0 mi SW 8.1 mph - N/A   Clear
8:56 PM 68.0 °F 54.0 °F 61% 30.19 in 10.0 mi SW 5.8 mph - N/A   Clear
9:56 PM 66.0 °F 55.9 °F 70% 30.20 in 10.0 mi SW 4.6 mph - N/A   Clear
10:56 PM 64.9 °F 57.0 °F 75% 30.20 in 10.0 mi SW 4.6 mph - N/A   Clear
11:56 PM 63.0 °F 55.0 °F 75% 30.20 in 10.0 mi West 4.6 mph - N/A   Clear